LB7PJ Weather Reports


time (UTC)temp
C
wind
direction
speed
KPH
gust
KPH
rain 1hr
cm
rain 24hr
cm
rain mn
cm
humidity
%
barometer
mb
20260507233002 3 293 6.4 0.0 0.00 0.00 0.00 61 1009.9
20260507231502 3 293 6.4 0.0 0.00 0.00 0.00 61 1009.9
20260507230003 3 293 6.4 0.0 0.00 0.00 0.00 61 1009.9
20260507224502 3 293 6.4 0.0 0.00 0.00 0.00 61 1009.9
20260507223002 3 274 3.2 0.0 0.00 0.00 0.00 61 1009.9
20260507221501 3 274 3.2 0.0 0.00 0.00 0.00 61 1009.9
20260507220001 5 296 3.2 0.0 0.00 0.00 0.00 61 1009.9
20260507214502 5 296 3.2 0.0 0.00 0.00 0.00 61 1009.9
20260507213002 5 296 3.2 0.0 0.00 0.00 0.00 61 1009.9
20260507211502 6 296 3.2 0.0 0.00 0.00 0.00 61 1009.9
20260507210002 6 296 3.2 0.0 0.00 0.00 0.00 61 1009.9
20260507204502 6 296 3.2 0.0 0.00 0.00 0.00 61 1009.9
20260507203001 8 316 3.2 0.0 0.00 0.00 0.00 61 1009.9
20260507201502 8 316 3.2 0.0 0.00 0.00 0.00 61 1009.9
20260507200002 11 94 3.2 0.0 0.00 0.00 0.00 61 1009.9
20260507194502 11 94 3.2 0.0 0.00 0.00 0.00 61 1009.9
20260507193002 11 94 3.2 0.0 0.00 0.00 0.00 61 1009.9
20260507191502 10 94 3.2 0.0 0.00 0.00 0.00 61 1009.9
20260507190003 10 94 3.2 0.0 0.00 0.00 0.00 61 1009.9
20260507184502 11 102 4.8 0.0 0.00 0.00 0.00 61 1009.9
20260507183002 11 102 4.8 0.0 0.00 0.00 0.00 61 1009.9
20260507181502 11 102 4.8 0.0 0.00 0.00 0.00 61 1009.9
20260507180002 12 102 6.4 0.0 0.00 0.00 0.00 61 1009.9
20260507174502 12 102 6.4 0.0 0.00 0.00 0.00 61 1009.9
20260507173002 12 102 6.4 0.0 0.00 0.00 0.00 61 1009.9
20260507171503 12 102 6.4 0.0 0.00 0.00 0.00 61 1009.9
20260507170002 12 102 6.4 0.0 0.00 0.00 0.00 61 1009.9
20260507164501 12 94 4.8 0.0 0.00 0.00 0.00 61 1009.9
20260507163002 12 94 4.8 0.0 0.00 0.00 0.00 61 1009.9
20260507161501 12 94 4.8 0.0 0.00 0.00 0.00 61 1009.9
20260507160002 12 94 4.8 0.0 0.00 0.00 0.00 61 1009.9
20260507154502 12 94 4.8 0.0 0.00 0.00 0.00 61 1009.9
20260507153002 12 106 4.8 0.0 0.00 0.00 0.00 61 1009.9
20260507151501 12 106 4.8 0.0 0.00 0.00 0.00 61 1009.9
20260507150002 12 106 4.8 0.0 0.00 0.00 0.00 61 1009.9
20260507144501 12 106 4.8 0.0 0.00 0.00 0.00 61 1009.9
20260507143002 12 106 4.8 0.0 0.00 0.00 0.00 61 1009.9
20260507141501 12 102 6.4 0.0 0.00 0.00 0.00 61 1009.9
20260507140002 12 102 6.4 0.0 0.00 0.00 0.00 61 1009.9
20260507134502 12 102 6.4 0.0 0.00 0.00 0.00 61 1009.9
20260507133002 12 104 4.8 0.0 0.00 0.00 0.00 61 1009.9
20260507131502 12 104 4.8 0.0 0.00 0.00 0.00 61 1009.9
20260507130002 11 110 4.8 0.0 0.00 0.00 0.00 61 1009.9
20260507124502 11 110 4.8 0.0 0.00 0.00 0.00 61 1009.9
20260507123002 11 110 4.8 0.0 0.00 0.00 0.00 61 1009.9
20260507121502 10 108 4.8 0.0 0.00 0.00 0.00 61 1009.9
20260507120002 10 108 4.8 0.0 0.00 0.00 0.00 61 1009.9
20260507114502 9 88 4.8 0.0 0.00 0.00 0.00 61 1009.9
20260507113001 9 88 4.8 0.0 0.00 0.00 0.00 61 1009.9
20260507111503 9 88 4.8 0.0 0.00 0.00 0.00 61 1009.9
20260507110002 9 88 4.8 0.0 0.00 0.00 0.00 61 1009.9
20260507104502 9 88 4.8 0.0 0.00 0.00 0.00 61 1009.9
20260507103001 9 88 4.8 0.0 0.00 0.00 0.00 61 1009.9
20260507101502 8 68 4.8 0.0 0.00 0.00 0.00 61 1009.9
20260507100001 8 68 4.8 0.0 0.00 0.00 0.00 61 1009.9
20260507094502 7 118 3.2 0.0 0.00 0.00 0.00 61 1009.9
20260507093002 7 118 3.2 0.0 0.00 0.00 0.00 61 1009.9
20260507091502 7 118 3.2 0.0 0.00 0.00 0.00 61 1009.9
20260507090002 6 118 3.2 0.0 0.00 0.00 0.00 61 1009.9
20260507084502 6 118 3.2 0.0 0.00 0.00 0.00 61 1009.9
20260507083002 4 140 3.2 0.0 0.00 0.00 0.00 61 1009.9
20260507081502 4 140 3.2 0.0 0.00 0.00 0.00 61 1009.9
20260507080002 4 140 3.2 0.0 0.00 0.00 0.00 61 1009.9
20260507074502 2 148 1.6 0.0 0.00 0.00 0.00 61 1009.9
20260507073002 2 148 1.6 0.0 0.00 0.00 0.00 61 1009.9
20260507071501 2 148 1.6 0.0 0.00 0.00 0.00 61 1009.9
20260507070003 2 148 1.6 0.0 0.00 0.00 0.00 61 1009.9
20260507064501 2 148 1.6 0.0 0.00 0.00 0.00 61 1009.9
20260507063002 0 293 3.2 0.0 0.00 0.00 0.00 61 1009.9
20260507061502 0 293 3.2 0.0 0.00 0.00 0.00 61 1009.9
20260507060002 -1 288 3.2 0.0 0.00 0.00 0.00 61 1009.9
20260507054501 -1 288 3.2 0.0 0.00 0.00 0.00 61 1009.9
20260507053003 -1 288 3.2 0.0 0.00 0.00 0.00 61 1009.9
20260507051501 -1 288 3.2 0.0 0.00 0.00 0.00 61 1009.9
20260507050002 -1 288 3.2 0.0 0.00 0.00 0.00 61 1009.9
20260507044501 -1 293 4.8 0.0 0.00 0.00 0.00 61 1009.9
20260507043002 -1 293 4.8 0.0 0.00 0.00 0.00 61 1009.9
20260507041502 -1 293 4.8 0.0 0.00 0.00 0.00 61 1009.9
20260507040002 -1 289 4.8 0.0 0.00 0.00 0.00 61 1009.9
20260507034502 -1 289 4.8 0.0 0.00 0.00 0.00 61 1009.9
20260507033002 -1 289 4.8 0.0 0.00 0.00 0.00 61 1009.9
20260507031501 0 289 4.8 0.0 0.00 0.00 0.00 61 1009.9
20260507030002 0 289 4.8 0.0 0.00 0.00 0.00 61 1009.9
20260507024502 0 289 4.8 0.0 0.00 0.00 0.00 61 1009.9
20260507023002 0 289 4.8 0.0 0.00 0.00 0.00 61 1009.9
20260507021502 0 289 4.8 0.0 0.00 0.00 0.00 61 1009.9
20260507020001 0 294 4.8 0.0 0.00 0.00 0.00 61 1009.9
20260507014502 0 294 4.8 0.0 0.00 0.00 0.00 61 1009.9
20260507013002 0 294 4.8 0.0 0.00 0.00 0.00 61 1009.9
20260507011502 0 294 4.8 0.0 0.00 0.00 0.00 61 1009.9
20260507010002 0 294 4.8 0.0 0.00 0.00 0.00 61 1009.9
20260507004502 0 300 4.8 0.0 0.00 0.00 0.00 61 1009.9
20260507003002 0 300 4.8 0.0 0.00 0.00 0.00 61 1009.9
20260507001502 0 296 4.8 0.0 0.00 0.00 0.00 61 1009.9
20260507000002 0 296 4.8 0.0 0.00 0.00 0.00 61 1009.9
20260506234502 0 296 4.8 0.0 0.00 0.00 0.00 61 1009.9